Dewpoint
5 5 5 5 4 3 2 -3 -8 -16 -20 -21 -20 -19 -18 -18 -19 -22 -23 -24 -25 -24 -17 -18 -10 -6 -3 -7 -3 0 3 4 1 1 0 -2 -1 -1 -2 -3 -5 -5 -8 -8 7
7 6 5 5 4 3 1 -3 -8 -15 -21 -21 -20 -18 -20 -20 -20 -18 -12 -14 -8 -18 -13 -7 -5 -5 -4 -1 -10 -4 2 1 0 -1 0 -0 -1 -1 -3 -3 -3 -5 -8 -8 -8
9 8 6 4 4 2 0 -4 -9 -16 -21 -21 -20 -20 -22 -22 -22 -17 -19 -13 -10 -12 -12 -7 -6 -7 -8 -4 -6 -5 -0 -2 -3 -3 -4 -5 -5 -4 -5 -4 -6 -7 -8 -8 -9
10 10 8 5 3 -0 -2 -4 -9 -18 -21 -21 -21 -21 -24 -24 -15 -5 -10 -11 -15 -11 -15 -9 -7 -10 -11 -2 -2 -4 -6 -6 -6 -6 -6 -6 -7 -7 -7 -7 -8 -8 -9 -9 -10
10 10 10 7 4 2 -4 -5 -7 -18 -20 -21 -21 -23 -25 -22 -20 -17 -18 -18 -10 -9 -15 -13 -6 -8 -7 -9 -7 -6 -6 -6 -6 -6 -5 -7 -7 -7 -8 -8 -9 -9 -9 -10 -10
10 10 9 9 4 1 -3 -5 -7 -18 -20 -20 -22 -26 -19 -8 -15 -10 -12 -17 -8 -9 -10 -9 -3 -3 -3 -4 -8 -9 -10 -9 -8 -7 -8 -7 -7 -8 -9 -9 -11 -11 -11 -12 -13
9 9 8 8 6 0 -3 0 -10 -18 -19 -23 -25 -21 -4 -16 -17 -15 -7 -7 -8 -9 -6 -3 -3 -7 -7 -6 -6 -5 -3 -5 -5 -6 -8 -8 -7 -8 -10 -9 -10 -11 -11 -10 -10
8 7 6 3 3 5 -3 -5 -13 -17 -21 -23 -20 -8 1 -20 -25 -22 -14 -7 -7 -6 -7 -9 -11 -10 -9 -8 -7 -5 -4 -2 -5 -7 -7 -8 -6 -8 -9 -10 -10 -10 -11 -11 -11
8 6 5 3 3 1 -1 -4 -12 -17 -22 -14 -7 1 0 -15 -12 -13 -11 -14 -9 -7 -7 -7 -7 -10 -9 -6 -4 -5 -2 -2 -4 -6 -7 -8 -5 -8 -9 -9 -10 -10 -10 -10 -10
6 5 4 3 4 1 -0 -4 -13 -14 -7 -2 1 0 -6 -9 -4 -4 -6 -7 -6 -8 -7 -7 -8 -8 -7 -6 -1 -2 -3 -3 -3 -6 -7 -7 -6 -8 -9 -10 -10 -10 -10 -9 -10
6 5 4 3 3 2 -0 -2 -2 -1 1 -2 -2 -6 -9 -7 -6 -9 -3 -4 -4 -5 -5 -8 -7 -5 -8 -7 -6 -5 -4 -4 -6 -7 -6 -6 -6 -8 -9 -9 -9 -9 -9 -8 -7
5 5 3 3 2 -0 -0 -3 -3 -3 -2 -2 -5 -0 -7 -3 1 -10 -8 -5 -7 -2 -5 -4 -3 -6 -6 -7 -6 -6 -5 -4 -6 -7 -6 -6 -6 -7 -8 -8 -8 -7 -1 6 5
5 3 3 1 -0 -0 -0 -2 -6 -5 -6 -8 -8 0 -2 -2 2 -4 -8 -9 -7 -6 -3 -2 -3 -4 -5 -4 -4 -4 -4 -4 -3 -5 -5 -6 -5 -6 -7 -4 5 5 5 5 6
3 2 1 -0 -1 -2 -9 -8 -4 -6 -11 -9 -6 -6 -1 -3 -2 -8 -6 -8 -8 -6 -3 -2 -4 -4 -3 -3 -4 -2 -5 -4 -3 -3 -1 -5 0 -3 -5 6 5 5 5 4 3
1 1 1 0 -6 -6 -3 -4 -4 -7 -5 -9 -5 -9 -4 -4 -3 -4 -5 -9 -8 -7 -6 -4 -5 -3 -3 -3 -4 -3 -4 -3 -3 -2 -0 -1 -0 -3 3 6 5 3 4 5 4
0 0 0 -2 -6 -1 -3 -4 -5 3 -2 -4 -4 -3 -2 -3 -4 -4 -7 -7 -7 -7 -6 -6 -8 -7 -6 -7 -6 -6 -3 -2 -1 0 2 -3 -0 -1 7 6 5 4 5 5 4
-0 -1 -7 -12 -5 -1 -2 -6 2 3 -7 -1 -1 -2 -1 -1 -2 -4 -4 -3 -2 -1 -2 -4 -5 -6 -7 -5 -6 -5 -3 1 1 3 3 -2 0 -0 5 5 5 5 6 4 3
-0 -2 -13 -3 -0 -1 -2 2 4 -7 -8 -12 -5 -3 -0 -12 -11 -9 -4 -2 -10 -2 -2 -2 -3 -3 -3 -2 -2 -3 -3 1 3 4 -1 -2 2 1 5 4 5 6 4 3 3
-4 -5 -13 -2 0 -1 -0 3 -1 -7 -11 -11 -12 -8 -9 -11 -12 -10 -10 -8 -9 -10 -1 -3 -0 -6 -3 -7 -3 -2 -1 -3 0 0 3 1 1 5 5 4 5 5 3 2 2
-13 -9 -9 -3 -2 -2 2 2 -7 -9 -9 -8 -8 -9 -9 -10 -10 -10 -9 -8 -9 -10 -9 -6 -6 -3 -7 -5 -5 -5 -2 2 3 6 6 2 2 3 5 4 5 4 2 1 1
-5 -2 0 0 -5 1 2 0 -9 -9 -9 -7 -9 -9 -8 -8 -8 -8 -6 -5 -8 -8 -5 -4 -4 -4 -10 -4 -4 -5 -2 2 4 4 6 5 3 4 4 4 4 2 1 0 -0
-1 -1 -2 -5 1 1 1 -5 -9 -8 -8 -8 -6 -5 -6 -6 -7 -6 -5 -5 -6 -6 -5 -4 -2 0 -5 -7 -6 -5 3 3 5 5 3 5 4 4 4 3 2 1 0 -0 -1
-2 -4 -3 -1 1 -1 -7 -6 -5 -7 -6 -6 -6 -5 -6 -6 -5 -6 -5 -5 -7 -5 -6 -6 -3 -3 -10 -7 -5 -3 -4 -4 -1 2 4 5 4 2 3 2 1 1 0 -1 -2
-2 -4 -5 -4 -1 -3 -5 -6 -5 -7 -6 -5 -4 -5 -6 -4 -6 -6 -4 -5 -7 -4 -3 -5 -3 -4 -3 -5 -3 -2 -3 -3 -2 1 2 2 1 3 4 4 2 0 -0 -1 -2
-2 -3 -4 -2 -3 -4 -5 -5 -5 -5 -7 -6 -5 -4 -4 -3 -6 -4 -4 -5 -6 -6 -3 -4 -2 -2 -2 -3 -5 -5 -4 -5 -3 -3 -0 -2 0 -0 4 2 1 -0 -1 -1 -2
-3 -3 -4 -5 -6 -6 -5 -5 -4 -6 -5 -5 -4 -6 -7 -5 -6 -5 -5 -6 -6 -6 -5 -4 -2 -4 -4 -8 -8 -4 -4 -4 -4 -4 -4 -5 -4 3 2 1 -0 -1 -2 -2 -3
-4 -3 -5 -5 -6 -6 -6 -6 -6 -7 -8 -9 -8 -7 -6 -5 -7 -8 -8 -8 -7 -5 -4 -4 -4 -3 -4 -5 -3 -3 -2 2 -3 -5 -2 -1 1 2 1 -1 -2 -2 -3 -3 -4
Wind_Speed
25 24 23 23 23 22 22 22 22 22 22 22 24 25 26 28 28 29 30 24 21 13 11 13 9 6 7 9 11 7 1 3 5 6 4 10 5 19 18 19 16 15 23 24 27
29 28 26 25 25 24 22 22 22 22 23 23 23 25 25 28 30 32 19 13 10 12 11 12 12 10 6 4 7 6 4 9 6 4 4 10 14 28 5 15 23 30 23 24 22
32 31 30 28 27 26 24 22 23 22 23 22 23 24 23 24 28 5 3 6 5 2 7 8 8 9 8 6 7 6 7 4 4 9 13 7 16 28 13 14 15 26 29 28 19
34 34 33 30 29 27 25 24 22 23 22 22 22 24 21 18 6 3 5 4 10 5 6 8 11 6 5 6 12 5 8 9 6 19 19 10 21 13 24 23 27 29 29 23 19
38 37 37 32 28 29 27 25 25 23 23 21 21 22 19 10 28 22 23 22 12 8 8 10 10 7 5 4 7 6 10 18 23 24 24 29 16 17 23 27 23 23 25 28 28
43 41 39 35 29 29 26 26 24 23 21 20 20 20 15 8 10 5 10 15 9 9 9 14 7 5 8 5 6 7 7 14 11 14 12 11 8 7 9 26 27 29 32 33 33
43 46 40 36 30 27 25 24 22 22 19 18 19 17 15 34 11 9 12 13 10 7 10 9 9 7 3 5 8 7 6 5 5 5 6 13 11 6 15 22 22 24 28 32 34
47 43 36 32 30 29 23 22 18 18 20 15 16 12 14 21 15 23 26 20 14 15 14 12 10 11 9 7 7 4 1 3 3 5 7 3 15 7 15 16 26 30 34 34 31
51 41 34 29 28 26 24 21 17 17 16 13 10 7 15 12 16 12 23 27 21 17 14 15 10 10 4 3 4 3 4 4 7 4 3 5 13 4 25 21 22 29 33 33 35
48 40 29 27 27 23 22 16 11 10 10 7 7 5 17 6 5 8 12 14 13 13 16 12 7 3 1 4 6 5 3 3 4 6 2 7 23 15 18 17 20 25 33 37 40
47 38 33 29 23 21 21 12 9 9 19 16 17 10 6 12 6 6 13 14 11 7 6 6 3 10 11 7 3 4 4 6 7 10 4 13 21 19 14 12 17 24 27 31 31
45 39 28 24 19 19 15 12 10 4 10 26 34 22 21 9 5 10 15 13 9 7 4 2 9 11 6 5 6 6 7 11 7 13 6 10 18 14 7 9 18 22 19 23 32
41 29 24 17 17 19 17 20 10 9 6 12 28 33 29 16 11 12 19 21 4 7 7 6 9 4 7 5 5 7 6 10 12 5 6 5 14 12 7 3 14 16 18 22 25
31 25 19 17 13 15 16 12 5 7 3 6 9 12 17 19 7 24 21 11 4 12 6 6 11 12 7 8 8 7 9 13 7 4 5 4 8 20 4 4 3 7 15 22 28
21 18 17 16 6 14 9 13 8 4 4 4 7 8 19 24 7 15 19 13 8 7 7 7 2 4 8 8 8 8 9 7 3 4 7 5 1 9 6 4 7 10 15 18 25
18 18 15 11 12 12 13 12 8 3 8 4 8 8 10 11 3 9 12 7 3 5 2 7 4 3 6 6 6 3 2 3 3 2 5 12 7 5 3 3 9 9 12 18 27
13 7 10 14 14 13 10 12 3 5 4 5 6 11 10 7 4 5 7 3 2 3 4 2 4 3 1 3 2 4 4 2 3 1 6 4 2 6 5 9 9 9 13 19 29
14 10 14 17 15 15 13 1 7 9 4 3 4 14 5 3 3 4 6 5 6 2 2 3 2 3 4 2 3 5 7 5 6 4 6 2 5 5 6 8 4 9 12 28 33
11 12 13 17 13 16 11 4 4 4 4 5 4 5 2 4 4 5 4 3 3 5 2 2 4 3 5 2 1 2 1 4 5 2 3 4 5 6 5 5 1 9 17 24 27
13 14 13 16 18 14 2 5 2 4 6 4 3 5 3 3 4 3 4 3 4 4 1 1 2 3 4 1 7 6 4 3 3 3 4 4 4 4 3 6 4 9 14 18 25
14 7 12 15 16 7 3 4 1 3 3 5 3 3 4 3 3 3 4 2 4 3 6 1 3 3 4 4 2 4 2 3 3 4 3 3 4 4 4 5 6 6 13 14 22
8 3 14 19 4 3 3 4 3 4 5 3 4 6 3 3 3 3 4 4 2 2 3 3 2 1 1 8 5 3 2 4 1 3 3 3 5 7 7 7 7 10 14 12 17
10 7 11 11 3 3 2 3 5 2 3 3 3 4 4 3 5 4 5 6 15 4 3 1 1 2 1 4 5 4 4 3 3 6 7 5 4 10 5 5 11 11 15 14 17
5 3 5 11 6 3 4 3 4 6 5 6 3 5 4 4 6 3 3 4 9 5 9 4 1 3 4 5 1 6 9 8 6 3 5 7 12 11 13 8 10 13 13 16 20
3 2 5 4 3 3 3 3 5 3 2 5 4 5 3 3 2 3 4 3 3 4 4 3 2 2 5 5 5 9 13 14 14 13 11 13 16 11 3 5 9 12 14 16 19
4 2 2 2 6 6 3 2 7 6 3 3 5 7 7 4 3 2 2 1 3 2 3 3 1 1 6 5 8 13 16 16 17 17 15 17 20 6 5 5 10 11 14 17 17
2 4 2 3 2 4 2 3 5 6 9 7 5 4 5 4 6 9 12 10 7 6 4 3 3 2 5 2 8 11 8 11 16 16 10 13 7 10 5 10 11 10 12 15 16
Wind_Direction
284 286 289 293 294 297 300 301 302 302 302 304 307 309 312 309 309 304 298 301 291 274 243 231 221 208 226 221 203 197 215 221 215 189 239 296 316 297 305 288 299 307 307 324 333
280 281 282 284 288 289 291 293 294 294 294 297 300 303 308 309 309 301 301 291 260 238 227 222 238 233 235 224 201 180 189 218 205 202 253 290 293 293 280 295 298 298 298 315 330
278 279 279 281 282 284 286 286 288 287 287 290 295 297 304 308 317 321 110 56 53 173 226 233 229 213 221 213 215 209 238 214 229 260 274 263 284 284 288 285 273 287 301 304 301
274 276 275 275 278 279 278 280 281 281 280 285 291 294 299 304 293 277 213 279 324 285 245 240 213 198 214 211 226 254 241 239 266 272 275 264 274 279 277 270 281 286 287 288 285
272 271 273 270 270 273 275 278 282 278 279 283 287 290 294 278 262 267 269 267 283 273 250 219 193 196 200 215 245 223 253 265 268 271 274 278 262 255 274 293 296 291 286 286 287
269 268 266 266 263 266 266 274 278 275 277 281 284 285 285 259 287 275 250 238 232 245 234 210 210 206 265 245 181 258 258 285 284 272 268 270 261 259 265 290 294 297 298 290 286
270 267 261 264 257 258 262 268 270 273 275 282 280 279 266 256 261 270 237 216 217 228 244 232 235 282 312 297 298 268 296 302 254 245 243 280 274 236 291 303 302 308 312 306 298
272 251 248 247 251 257 255 259 263 276 277 275 275 268 255 280 254 234 232 222 223 240 242 257 256 269 237 270 331 331 18 326 300 13 285 252 274 270 297 308 310 312 311 306 301
258 241 241 242 253 246 248 250 262 269 266 263 260 243 268 260 248 254 231 232 237 240 247 249 261 239 217 109 352 355 256 265 311 238 261 220 286 264 298 299 296 301 303 303 302
242 235 229 238 258 249 253 249 262 269 238 230 203 249 258 256 237 220 206 212 219 221 236 237 219 222 102 131 226 236 231 260 234 290 87 283 286 292 293 290 280 291 299 300 296
232 227 233 242 249 258 248 261 253 255 209 204 209 201 295 211 286 231 192 191 205 220 182 189 152 225 221 207 190 221 245 252 264 272 289 275 273 280 284 297 292 290 290 293 306
222 224 226 232 250 231 225 227 211 274 290 248 237 249 239 232 313 238 209 182 179 196 160 93 226 230 217 187 215 233 266 278 279 261 242 250 269 279 286 282 295 312 348 3 352
216 209 213 225 218 226 225 239 246 287 276 265 237 228 232 231 216 251 206 208 172 193 191 183 225 169 211 248 231 243 234 260 254 257 235 278 291 297 313 25 45 12 358 355 347
193 195 202 199 218 229 244 189 186 268 291 258 199 228 200 208 245 219 190 174 214 204 193 233 247 245 220 239 205 246 235 242 258 332 282 136 297 307 336 154 19 341 352 350 345
174 181 190 194 190 176 168 171 199 205 271 193 164 189 175 161 150 191 199 185 187 191 139 234 207 171 227 219 221 240 232 222 248 249 317 153 160 285 344 313 336 316 330 350 355
187 196 197 197 197 160 154 166 158 131 241 225 143 164 144 200 204 141 168 189 226 188 226 228 253 198 223 215 202 205 146 42 31 60 282 297 176 270 307 286 297 304 334 352 357
188 178 186 200 179 154 150 154 134 213 267 167 164 153 168 172 202 144 157 74 146 153 216 252 208 221 321 307 315 153 102 334 317 339 237 249 321 245 236 248 259 313 348 347 5
192 193 191 162 164 159 156 115 226 185 265 332 173 166 163 115 82 132 124 142 29 52 171 198 267 35 2 53 270 250 172 174 233 212 273 186 254 260 221 267 322 37 6 356 354
184 184 188 176 157 177 164 205 241 340 333 356 50 132 82 46 95 90 66 75 27 353 146 126 264 332 96 294 246 328 188 229 253 313 301 235 276 297 242 277 119 52 24 5 344
170 159 173 193 181 172 209 256 248 358 334 21 59 0 111 23 83 87 95 343 152 20 265 275 283 27 306 64 42 81 309 16 17 271 242 257 263 240 252 281 42 32 41 4 347
154 117 143 165 150 168 200 265 36 5 47 42 46 77 60 106 64 80 60 35 17 355 56 58 121 301 19 48 21 353 40 36 296 214 257 294 262 244 234 337 99 53 62 14 358
144 94 164 156 133 198 201 242 98 53 77 35 57 53 74 78 62 81 102 76 326 228 70 348 102 303 220 274 305 241 64 70 293 333 295 274 272 6 53 52 73 59 53 30 11
141 118 168 180 177 198 236 75 48 157 21 67 73 56 60 78 98 88 94 32 33 56 106 39 35 353 24 31 14 51 44 5 217 260 229 256 260 43 37 47 49 51 44 27 15
191 97 145 206 255 174 143 143 132 45 47 61 80 64 78 63 35 107 79 37 26 48 56 61 79 173 200 222 347 303 301 298 268 172 306 282 284 318 357 53 17 51 45 34 22
159 200 165 196 244 159 121 115 121 128 76 51 47 77 95 95 82 82 47 12 347 65 54 80 218 238 262 294 296 267 266 270 248 248 235 267 276 310 36 52 57 22 39 35 28
179 133 92 87 124 100 26 158 119 95 81 35 98 79 77 99 88 126 109 124 237 3 97 16 205 341 285 264 277 292 280 263 250 243 252 255 265 112 59 52 67 29 38 31 24
164 149 153 346 76 92 199 136 115 105 51 69 109 99 82 154 203 232 227 213 208 183 163 148 143 98 264 13 325 285 288 306 254 237 245 233 244 151 119 60 23 26 42 42 23
Height
1509 1508 1508 1507 1506 1506 1504 1503 1501 1500 1497 1496 1493 1491 1489 1486 1483 1480 1476 1477 1476 1476 1477 1478 1480 1482 1483 1483 1483 1484 1490 1494 1482 1480 1476 1470 1471 1470 1472 1471 1469 1467 1466 1461 1453
1505 1505 1504 1502 1502 1502 1501 1500 1498 1497 1495 1493 1491 1489 1487 1484 1480 1475 1474 1470 1470 1472 1475 1477 1479 1481 1482 1480 1481 1480 1486 1479 1472 1470 1471 1470 1470 1466 1469 1469 1465 1462 1462 1460 1457
1499 1499 1499 1498 1497 1497 1497 1496 1495 1494 1492 1490 1489 1487 1486 1484 1480 1472 1472 1471 1472 1473 1474 1476 1478 1479 1479 1478 1476 1474 1472 1470 1468 1469 1469 1468 1466 1464 1463 1463 1464 1459 1458 1458 1458
1492 1493 1493 1493 1493 1493 1492 1492 1491 1490 1488 1487 1486 1484 1483 1484 1486 1472 1471 1471 1472 1472 1472 1473 1475 1477 1476 1475 1471 1473 1466 1465 1466 1467 1465 1463 1462 1460 1459 1458 1458 1457 1455 1455 1454
1485 1485 1485 1487 1487 1487 1488 1487 1487 1486 1485 1482 1482 1480 1481 1480 1469 1472 1471 1469 1470 1469 1470 1471 1472 1472 1472 1470 1469 1468 1464 1462 1462 1462 1460 1457 1457 1456 1452 1451 1452 1452 1452 1450 1449
1476 1476 1477 1478 1480 1481 1480 1483 1483 1483 1481 1478 1477 1476 1477 1477 1465 1465 1465 1465 1468 1468 1468 1469 1469 1470 1468 1466 1467 1461 1460 1459 1459 1458 1455 1453 1451 1453 1450 1448 1446 1445 1443 1443 1442
1467 1468 1469 1471 1471 1475 1475 1476 1476 1480 1477 1475 1472 1470 1470 1460 1463 1463 1462 1464 1465 1466 1467 1468 1468 1469 1466 1464 1461 1460 1460 1457 1455 1454 1453 1449 1446 1449 1445 1443 1441 1439 1437 1436 1435
1459 1460 1462 1466 1467 1467 1470 1471 1470 1475 1474 1470 1469 1466 1458 1456 1456 1454 1457 1460 1461 1463 1464 1465 1466 1466 1464 1462 1460 1461 1459 1462 1454 1453 1451 1451 1441 1442 1439 1438 1436 1434 1432 1429 1428
1452 1455 1457 1461 1461 1462 1464 1465 1468 1470 1470 1467 1467 1465 1454 1451 1447 1449 1450 1453 1459 1460 1461 1463 1465 1463 1462 1464 1468 1466 1469 1464 1458 1450 1450 1451 1442 1438 1438 1434 1431 1430 1429 1427 1422
1445 1449 1453 1455 1456 1458 1462 1463 1465 1467 1466 1466 1465 1468 1448 1446 1445 1446 1447 1450 1455 1456 1459 1460 1461 1462 1463 1463 1470 1466 1465 1463 1464 1453 1451 1454 1439 1434 1434 1430 1429 1426 1423 1420 1417
1438 1442 1446 1450 1453 1456 1461 1464 1466 1466 1460 1450 1444 1439 1439 1441 1444 1445 1446 1448 1450 1454 1458 1455 1461 1462 1457 1458 1455 1457 1459 1463 1459 1452 1453 1453 1441 1432 1430 1427 1423 1420 1417 1414 1411
1430 1436 1441 1447 1448 1454 1453 1459 1457 1458 1451 1445 1442 1439 1438 1439 1441 1443 1446 1446 1447 1451 1452 1457 1455 1448 1453 1455 1457 1457 1459 1457 1453 1448 1451 1451 1435 1429 1427 1421 1418 1418 1418 1415 1410
1426 1432 1436 1442 1446 1449 1449 1453 1454 1456 1452 1434 1430 1432 1431 1438 1436 1436 1439 1442 1442 1448 1449 1455 1444 1444 1450 1450 1454 1452 1455 1451 1453 1447 1445 1441 1430 1421 1418 1420 1422 1422 1418 1410 1409
1420 1428 1433 1438 1447 1445 1446 1450 1452 1458 1457 1428 1422 1417 1423 1431 1431 1429 1431 1437 1442 1443 1446 1448 1439 1442 1446 1447 1448 1453 1440 1442 1444 1447 1451 1443 1450 1411 1417 1422 1420 1419 1413 1409 1404
1421 1424 1430 1437 1440 1443 1446 1448 1451 1457 1454 1410 1413 1410 1411 1420 1420 1422 1428 1431 1436 1437 1442 1441 1435 1440 1443 1442 1439 1442 1435 1437 1438 1445 1444 1443 1455 1419 1419 1417 1417 1415 1413 1411 1403
1420 1421 1429 1434 1440 1442 1444 1447 1451 1458 1444 1410 1405 1410 1413 1416 1417 1420 1424 1429 1430 1435 1435 1435 1432 1433 1433 1431 1432 1431 1434 1439 1443 1447 1452 1431 1445 1436 1428 1424 1417 1412 1411 1406 1400
1419 1424 1428 1431 1438 1440 1443 1446 1453 1444 1406 1406 1405 1407 1411 1414 1416 1417 1423 1430 1436 1441 1440 1432 1431 1428 1429 1431 1429 1431 1440 1454 1455 1458 1450 1433 1435 1427 1422 1416 1413 1410 1409 1407 1398
1421 1425 1427 1432 1436 1439 1441 1447 1442 1414 1408 1404 1403 1406 1411 1410 1416 1417 1425 1434 1436 1435 1438 1438 1436 1430 1433 1434 1434 1435 1438 1450 1448 1448 1437 1426 1434 1419 1414 1413 1414 1410 1409 1403 1399
1422 1425 1427 1431 1434 1440 1442 1443 1424 1415 1412 1409 1405 1411 1416 1414 1415 1422 1430 1436 1439 1438 1439 1444 1438 1432 1433 1432 1434 1432 1438 1428 1434 1435 1440 1429 1420 1414 1412 1410 1409 1408 1405 1403 1404
1420 1423 1426 1430 1434 1439 1440 1429 1421 1419 1417 1412 1412 1414 1421 1422 1422 1425 1432 1439 1440 1439 1438 1442 1444 1437 1433 1431 1434 1438 1439 1448 1455 1444 1438 1426 1421 1422 1412 1409 1408 1411 1407 1408 1405
1421 1422 1426 1430 1434 1437 1436 1428 1421 1422 1417 1417 1419 1420 1423 1424 1426 1430 1435 1442 1439 1439 1439 1442 1444 1443 1436 1441 1445 1444 1441 1450 1449 1446 1437 1436 1435 1413 1410 1411 1412 1415 1409 1413 1408
1417 1422 1427 1428 1433 1432 1433 1424 1419 1420 1422 1421 1421 1424 1426 1427 1431 1432 1439 1440 1441 1441 1444 1444 1448 1451 1445 1440 1441 1442 1446 1449 1453 1446 1446 1440 1432 1418 1418 1417 1417 1419 1414 1417 1415
1417 1423 1427 1428 1428 1430 1424 1424 1426 1424 1425 1424 1425 1426 1428 1432 1437 1436 1438 1444 1441 1441 1445 1445 1453 1458 1448 1448 1445 1446 1448 1449 1452 1453 1444 1439 1424 1417 1422 1423 1422 1421 1418 1420 1418
1416 1421 1426 1428 1423 1423 1423 1424 1425 1425 1426 1427 1430 1429 1431 1435 1436 1439 1443 1446 1444 1443 1444 1445 1452 1451 1460 1452 1453 1454 1452 1453 1455 1465 1451 1442 1431 1420 1422 1422 1427 1422 1423 1421 1418
1413 1415 1416 1424 1420 1419 1420 1422 1424 1428 1429 1429 1432 1433 1434 1440 1441 1446 1447 1448 1447 1446 1446 1450 1454 1452 1450 1450 1453 1454 1451 1448 1447 1443 1443 1434 1428 1420 1428 1429 1425 1427 1424 1423 1422
1412 1412 1413 1415 1417 1418 1422 1424 1424 1427 1429 1432 1434 1436 1436 1442 1443 1447 1449 1449 1450 1448 1450 1454 1458 1455 1452 1450 1449 1446 1437 1434 1433 1430 1428 1424 1418 1425 1430 1430 1426 1427 1426 1425 1424
1411 1413 1414 1418 1418 1420 1423 1423 1426 1428 1434 1433 1435 1437 1440 1442 1442 1444 1444 1445 1446 1448 1452 1455 1462 1464 1453 1447 1447 1443 1433 1430 1417 1416 1417 1419 1411 1421 1429 1432 1435 1432 1429 1426 1427